GFSGBSN_sfc_thetae_159.txt.gz
Theta_e
312 312 312 311 311 311 311 311 311 311 311 311 311 311 312 312 312 312 312 312 312 311 311 311 311 312 309 298 296 308 319 318 314 317 309 304 301 300 297 300 300 299 300 302 305 305 304
312 312 312 312 311 311 311 310 311 311 311 310 310 311 311 311 311 312 313 313 312 312 312 311 311 312 303 292 306 308 308 308 308 310 309 305 303 305 301 301 300 300 301 301 303 302 304
312 312 311 311 311 311 310 310 310 310 311 311 311 311 310 311 312 312 313 313 313 312 312 312 311 307 299 296 307 308 308 305 307 308 310 311 311 307 304 300 304 303 298 299 301 302 301
312 312 311 311 310 310 310 310 310 310 311 310 310 311 311 312 312 313 312 313 313 313 312 311 311 304 293 305 306 305 306 304 308 308 308 314 314 308 306 306 303 299 295 290 298 302 303
311 311 311 311 311 310 310 310 310 310 310 311 311 311 311 311 312 312 313 312 312 313 312 311 304 299 291 309 304 305 305 302 307 308 309 314 313 307 305 299 295 295 289 290 294 302 301
311 311 311 311 311 311 310 310 310 310 310 311 311 311 311 312 312 313 312 311 312 310 309 309 305 295 298 298 305 308 308 306 304 307 307 306 306 300 301 296 288 291 290 291 292 298 300
311 311 311 310 310 310 310 310 310 310 310 310 311 311 311 312 312 312 309 304 298 298 300 296 297 296 299 305 312 308 309 304 303 302 295 301 297 293 297 299 300 297 294 292 295 300 297
311 310 310 310 310 309 310 310 310 310 310 310 310 311 311 311 312 312 307 299 299 299 292 302 301 302 304 307 301 304 310 297 297 291 297 296 293 299 301 301 300 297 294 292 296 300 297
310 310 310 309 309 310 310 310 310 310 309 309 309 310 311 311 311 308 304 303 307 303 292 299 305 303 303 305 299 300 306 300 296 293 294 294 297 301 300 299 297 295 292 293 293 298 300
310 310 310 310 310 309 309 310 310 310 309 309 309 309 310 310 307 308 304 308 308 306 289 295 298 302 304 305 299 306 308 304 298 294 296 296 301 299 297 296 297 291 297 297 296 294 289
310 310 311 310 310 309 309 309 309 309 309 309 309 309 310 308 305 305 306 310 308 302 278 297 298 307 305 300 301 302 309 305 296 297 298 295 295 295 295 296 299 294 299 296 297 292 290
311 310 310 310 310 309 309 308 308 308 308 308 309 309 309 309 306 311 314 311 304 289 280 292 300 299 298 300 298 301 302 305 304 299 299 296 300 298 296 300 300 301 296 296 294 291 286
311 310 310 310 310 309 308 308 308 308 308 308 309 309 306 309 304 312 314 306 289 283 295 290 294 298 297 295 296 297 296 295 292 287 288 294 294 298 301 295 298 298 294 284 282 284 284
311 310 310 310 309 309 308 308 307 307 307 307 307 307 309 311 313 313 311 299 284 290 291 297 298 298 294 296 295 296 294 292 297 295 291 287 286 295 299 296 292 294 292 285 281 282 285
311 311 310 310 309 309 308 307 307 307 307 306 306 310 310 311 313 313 303 290 289 291 296 295 296 292 294 296 295 294 293 293 297 297 289 289 289 299 299 299 298 292 291 297 291 291 288
312 311 310 309 309 309 308 307 307 307 307 306 302 306 308 314 316 309 296 291 294 299 299 298 291 295 292 294 292 293 294 300 299 302 299 296 288 296 298 299 298 295 299 290 291 283 283
312 311 311 310 309 308 308 307 307 307 306 305 304 303 309 314 315 302 291 293 296 301 302 297 295 295 297 295 295 293 295 300 302 300 300 296 292 292 296 293 292 291 291 292 293 290 286
313 312 311 310 309 308 307 307 307 306 305 303 302 297 310 313 298 299 292 298 299 299 303 300 300 298 298 299 297 295 295 299 305 302 297 297 292 287 291 297 299 295 292 295 287 290 292
313 312 311 310 309 308 307 307 307 306 305 300 297 301 311 306 291 291 298 299 300 299 298 298 297 301 302 298 296 298 298 303 304 302 298 298 291 283 285 290 294 291 293 295 295 292 289
313 313 311 310 308 307 307 306 306 306 305 302 300 293 299 299 298 295 294 296 295 301 299 300 300 301 298 297 301 299 298 302 303 303 312 305 294 288 284 287 291 290 293 297 295 287 290
313 313 312 310 308 307 307 306 306 306 305 302 299 294 296 289 292 293 296 297 293 293 298 300 297 297 295 295 297 296 300 302 303 308 301 300 293 298 292 294 294 293 293 295 296 296 292
313 313 312 310 308 306 306 306 306 306 305 304 294 292 294 293 296 294 294 292 292 294 295 294 295 297 296 296 297 294 298 299 299 303 300 303 294 297 296 294 294 293 295 296 297 298 298
312 312 312 310 307 306 306 305 306 306 305 300 302 300 295 294 293 291 291 293 294 294 299 299 298 296 295 299 300 301 302 302 302 300 300 300 296 294 290 296 294 288 292 294 297 302 301
311 312 312 309 308 306 306 305 305 306 305 301 301 299 293 288 291 291 293 295 293 295 294 298 299 298 300 305 304 304 303 303 303 304 306 298 296 295 291 294 284 294 301 299 297 304 304
310 312 312 310 308 306 305 304 304 306 306 300 302 299 293 287 292 292 293 294 294 296 297 298 300 303 303 302 297 296 296 298 302 304 302 302 296 291 288 288 295 299 303 300 301 301 307
310 311 312 310 307 306 305 304 304 305 305 301 300 304 298 290 289 293 291 292 289 289 293 296 301 302 303 299 297 289 287 294 293 297 303 303 299 292 290 287 286 297 305 309 309 296 306
309 310 311 309 307 306 305 304 304 304 305 302 300 304 301 292 294 295 290 290 295 293 291 295 297 297 302 294 292 291 291 299 290 292 293 293 294 290 290 288 292 302 307 310 293 296 307
308 309 310 309 307 305 304 304 303 304 304 302 298 302 299 295 296 297 298 293 292 292 289 294 293 296 295 290 289 292 293 296 295 298 298 294 291 290 293 288 286 309 307 301 304 307 310
307 308 309 308 306 305 304 304 303 303 303 303 296 302 304 298 294 300 300 301 299 298 295 295 295 296 296 293 291 291 292 296 296 292 300 295 298 294 296 296 305 309 309 310 309 308 308

GFSGBSN_sfc_thetae_162.txt.gz
Theta_e
313 312 312 312 312 311 311 310 311 310 310 310 310 310 311 311 312 312 312 313 313 313 313 312 312 311 306 296 295 306 316 313 307 313 308 304 299 297 294 297 299 297 298 299 301 301 301
313 313 312 312 311 311 311 311 311 311 311 310 310 310 311 311 312 313 313 313 313 313 313 313 312 311 300 289 303 306 306 306 305 302 303 304 300 300 298 297 296 299 298 300 300 298 299
312 312 312 312 311 311 310 311 311 311 311 311 311 310 311 311 312 312 312 313 313 313 313 313 312 307 297 292 305 305 304 302 304 303 300 307 306 302 301 297 301 301 295 298 298 300 297
312 312 312 311 311 311 310 311 311 310 310 311 311 311 311 311 312 313 313 312 312 312 312 312 311 302 291 303 303 302 303 301 305 305 304 305 307 303 301 304 302 296 293 288 294 297 299
312 312 312 312 311 311 310 310 310 310 310 311 311 311 311 311 312 313 313 313 312 313 312 311 303 297 290 305 302 306 304 300 302 304 305 308 306 304 302 297 292 294 287 288 292 296 297
312 312 312 311 311 311 310 310 310 310 310 310 311 311 311 311 312 312 312 312 311 310 310 309 305 294 297 298 307 309 305 303 301 303 305 302 302 300 296 292 286 289 288 289 289 293 295
312 312 312 311 311 311 310 311 310 310 310 310 310 310 310 311 312 312 308 300 295 293 298 295 296 296 299 305 311 306 310 303 302 301 294 302 296 293 296 297 298 296 292 289 292 296 294
312 312 312 311 311 310 311 311 310 310 310 310 309 310 311 311 311 311 305 297 300 299 291 300 300 300 303 305 300 304 308 298 296 291 297 295 293 298 300 300 298 297 294 290 293 297 293
312 312 311 311 311 311 311 310 310 310 310 310 309 310 310 311 310 306 301 303 308 304 290 297 304 303 301 304 300 300 303 298 293 292 293 290 295 301 299 297 296 295 293 291 291 295 294
313 312 312 311 311 311 311 310 310 310 310 309 309 309 310 310 305 304 302 309 309 303 286 293 298 301 304 304 299 307 308 303 296 291 292 294 299 298 296 295 297 291 298 296 294 290 284
314 314 313 311 311 310 310 310 310 310 309 309 309 310 310 308 300 301 306 309 307 300 273 296 298 308 305 300 300 301 308 303 295 295 295 293 295 295 294 295 299 294 298 295 294 289 288
314 314 313 312 312 311 309 309 309 309 308 309 309 309 309 305 301 305 310 309 301 284 275 291 299 298 299 300 298 301 301 305 303 297 297 296 301 296 295 299 299 300 296 294 292 289 283
314 313 313 312 312 311 309 309 309 308 308 308 309 309 307 307 300 307 308 304 285 281 295 289 293 297 296 296 296 297 295 293 292 287 286 292 293 296 299 294 297 295 290 283 281 282 282
314 314 313 312 311 310 309 308 308 307 307 307 307 307 306 307 305 306 306 294 281 291 291 298 297 296 293 296 294 295 294 290 295 293 288 286 284 293 298 295 291 291 290 284 279 279 283
315 314 314 313 312 310 309 308 307 307 307 306 305 302 304 309 309 306 297 285 288 292 296 295 295 293 293 297 294 293 292 292 295 296 288 287 288 297 298 299 296 291 288 293 287 288 284
315 315 314 313 311 310 309 308 307 307 306 306 298 299 303 308 308 303 292 289 293 299 299 297 291 295 291 294 292 290 291 297 296 299 297 293 289 296 297 297 297 292 297 287 287 280 279
315 315 314 313 311 310 309 308 307 307 306 305 298 298 306 305 306 297 285 289 294 301 302 297 294 294 296 293 294 292 293 299 302 299 298 295 293 291 294 290 289 290 289 293 292 290 282
314 314 314 313 311 309 308 307 307 306 305 301 294 291 305 305 292 290 289 294 298 298 301 300 300 298 296 297 296 295 294 298 303 301 295 297 291 285 288 294 298 293 292 292 286 287 288
313 314 314 313 311 309 308 307 307 306 305 299 291 294 303 300 285 286 292 295 300 297 296 298 297 299 300 295 293 297 299 304 303 300 296 296 291 282 286 289 294 290 292 293 293 292 288
313 313 314 313 311 309 307 307 306 306 305 299 293 288 292 291 292 288 288 290 294 300 297 298 298 299 296 295 300 297 297 302 304 303 310 302 292 288 283 286 290 289 292 296 292 285 288
311 312 313 313 310 308 307 307 306 305 305 297 291 287 289 283 287 289 289 291 289 289 295 296 294 296 294 292 295 294 298 299 303 306 303 296 290 295 296 292 293 292 292 295 293 294 289
311 311 312 313 310 308 307 307 306 305 305 296 289 288 289 288 290 289 288 287 289 290 290 292 291 294 294 293 295 292 295 297 296 300 297 298 290 293 292 296 292 290 292 293 297 297 296
310 310 311 312 309 308 306 306 306 306 302 292 295 294 290 289 288 286 286 288 291 291 294 296 295 293 293 295 297 298 298 298 298 296 296 295 292 290 287 296 295 286 291 292 297 299 299
310 310 312 312 310 307 306 305 305 306 303 294 293 293 286 284 288 288 289 291 290 290 290 296 296 293 298 301 301 301 300 299 298 297 301 298 293 291 288 291 282 292 301 298 299 302 302
311 310 311 312 310 307 306 305 305 305 305 294 295 293 289 284 288 289 290 290 290 290 290 295 296 299 299 298 295 293 294 296 299 301 301 303 295 289 285 286 292 297 301 300 298 300 305
309 310 310 311 309 308 306 305 304 305 305 295 294 295 295 289 285 291 289 289 285 286 288 292 297 298 299 297 295 287 284 292 291 295 302 300 297 291 289 285 282 295 303 308 305 296 309
309 309 309 310 309 308 306 305 305 304 304 299 294 298 296 292 292 291 288 289 291 287 284 288 291 293 299 293 291 290 289 297 289 289 291 290 291 290 289 286 291 300 304 308 292 293 307
307 307 309 310 309 307 306 305 304 304 303 299 295 296 293 292 294 296 295 289 289 287 284 288 288 294 293 289 289 290 291 293 292 296 294 291 288 289 291 287 284 305 304 298 301 307 308
307 307 308 309 308 307 305 305 305 304 303 302 292 296 299 292 291 296 296 297 296 295 292 292 288 291 294 292 291 291 290 292 293 288 299 293 298 294 293 293 303 305 305 307 307 307 308

GFSGBSN_sfc_thetae_165.txt.gz
Theta_e
313 313 313 313 312 312 311 311 311 311 311 311 311 311 311 311 312 313 313 313 313 314 314 313 313 312 303 293 294 305 314 310 306 304 306 302 299 295 292 295 297 296 296 298 300 300 297
313 313 313 313 312 311 311 311 311 311 311 310 310 310 311 311 312 313 313 313 313 312 313 314 313 311 297 285 300 304 304 305 304 300 300 302 299 299 295 295 296 297 298 300 300 297 295
313 313 313 312 312 311 311 311 311 311 311 311 310 310 310 311 312 312 313 314 313 312 313 312 312 307 296 290 302 303 301 299 303 301 297 300 304 299 298 295 299 299 294 297 297 297 295
313 313 312 312 312 311 311 311 311 311 311 312 310 310 310 310 311 312 313 313 314 312 311 311 311 301 290 301 302 301 301 300 302 304 302 302 301 300 296 300 301 296 292 287 294 297 297
313 313 313 313 312 312 311 311 311 311 311 311 311 311 310 311 311 313 313 312 313 313 311 311 302 295 289 304 300 305 302 299 301 303 303 306 301 297 300 293 290 292 285 288 292 296 295
314 313 313 313 313 312 312 311 311 310 310 310 311 310 311 311 312 312 312 311 312 309 309 309 305 295 296 297 305 309 306 302 299 301 303 302 298 295 294 290 285 287 287 288 290 292 293
315 314 314 314 313 312 312 312 311 310 310 310 310 309 311 311 311 311 308 300 294 293 297 294 295 296 299 304 309 306 307 301 301 299 294 299 293 288 293 295 296 295 291 289 291 295 292
315 315 315 315 314 312 312 311 311 311 310 310 310 310 311 311 311 311 306 298 301 303 292 299 299 298 302 303 299 303 306 296 296 290 295 292 288 296 299 298 297 295 291 290 292 295 291
315 315 315 314 313 313 312 311 311 310 310 310 310 310 311 311 310 305 301 304 307 304 290 296 300 301 300 302 299 299 302 298 294 292 292 290 294 300 298 296 295 294 291 291 289 293 293
316 316 315 314 313 313 313 312 311 310 310 309 309 310 310 310 304 301 302 307 308 303 285 291 297 302 303 305 298 306 307 301 294 290 293 291 298 297 297 294 296 289 296 296 293 288 283
316 316 315 314 313 312 312 311 310 310 309 309 309 310 310 308 298 300 305 306 306 298 273 294 297 307 306 300 301 300 307 303 293 294 293 290 294 295 293 295 297 293 299 295 293 287 285
317 316 315 314 313 312 310 310 310 309 308 308 309 309 309 304 300 303 306 305 301 283 275 290 298 297 297 300 298 300 300 304 302 296 295 294 299 296 293 297 298 299 295 293 290 286 280
317 316 316 315 314 312 311 309 309 309 308 308 309 309 305 305 300 304 305 300 284 280 295 289 292 296 295 294 296 296 294 292 291 286 286 291 292 295 297 292 297 293 288 281 280 280 280
316 316 315 315 314 312 310 309 308 308 307 307 307 306 306 306 303 305 302 291 281 290 292 297 296 296 293 295 293 295 293 289 293 292 287 284 283 292 296 293 290 291 289 281 277 278 280
315 314 315 315 314 312 310 309 308 307 306 306 305 300 302 305 307 304 295 283 284 290 296 294 295 293 294 297 294 292 291 292 295 294 287 285 287 294 296 297 296 291 287 292 287 286 282
313 313 315 315 313 312 310 309 308 307 306 305 296 298 301 306 306 299 291 288 289 297 298 298 290 295 290 292 290 289 289 295 295 298 295 291 286 294 295 296 297 293 296 287 286 280 279
313 314 314 314 313 312 310 309 308 307 305 305 295 296 304 302 303 294 284 287 292 300 300 296 293 293 294 294 294 292 292 297 299 299 297 293 290 288 293 290 288 288 287 290 289 287 281
313 314 313 313 313 311 309 308 307 306 304 301 292 289 302 300 290 287 286 290 297 297 300 298 298 297 296 296 294 295 293 297 304 301 295 298 291 285 287 292 295 292 290 290 284 284 286
312 311 312 312 312 310 309 308 307 306 304 299 290 291 301 298 282 284 289 291 295 295 295 295 295 298 299 294 291 296 298 304 303 301 296 298 292 282 283 287 293 289 292 292 291 289 285
311 311 311 313 312 310 308 307 307 306 304 297 290 285 289 289 289 286 285 287 289 295 296 297 296 298 296 292 298 294 296 301 302 303 309 301 293 287 282 285 290 287 292 294 291 285 288
311 311 311 311 312 310 309 307 307 305 304 295 289 285 287 282 286 287 286 288 286 287 292 295 292 293 292 289 291 294 296 296 301 303 300 296 290 295 296 295 294 292 292 295 293 293 290
311 310 311 312 312 310 308 307 306 305 304 295 288 287 288 286 288 287 286 285 286 288 288 289 290 293 292 290 292 291 293 293 294 300 296 298 292 294 291 295 292 290 293 296 296 296 295
311 311 311 311 312 309 308 306 306 306 300 290 292 292 289 287 286 285 284 286 288 288 290 291 293 292 290 293 295 295 295 296 296 293 292 294 292 288 286 294 290 284 289 292 295 297 297
311 310 310 310 311 309 308 307 305 305 301 292 290 290 288 284 286 286 288 289 288 288 286 290 294 291 295 300 299 298 296 296 296 295 297 294 293 289 286 289 281 289 301 296 297 298 301
311 309 308 309 311 309 308 306 305 305 304 293 292 289 291 286 288 288 289 288 289 289 288 289 292 294 297 295 291 290 290 295 295 297 295 298 296 290 284 285 290 295 299 297 295 296 305
309 308 308 309 310 309 308 306 305 304 305 293 291 292 294 289 285 291 288 289 286 283 286 288 293 294 298 296 294 287 282 292 291 295 301 299 299 292 286 284 282 292 301 306 304 293 307
308 307 307 309 310 309 308 306 305 304 304 299 292 292 289 288 289 290 288 288 292 290 286 285 288 288 295 292 289 288 289 295 289 289 289 292 291 288 288 286 289 299 302 307 290 291 307
307 306 307 308 309 309 307 306 305 305 304 300 296 292 291 290 291 292 294 291 289 288 285 287 287 293 290 289 288 289 289 292 291 294 292 290 287 287 290 287 285 303 302 297 299 306 308
306 306 306 306 306 307 308 306 306 305 304 303 294 296 295 291 287 292 294 296 294 294 290 291 289 291 291 290 291 291 289 291 290 288 296 291 297 294 294 293 301 304 303 307 307 307 309

GFSGBSN_sfc_thetae_168.txt.gz
Theta_e
314 314 314 313 313 312 312 312 312 312 312 311 311 311 311 311 312 313 313 313 314 313 313 313 314 313 302 290 291 303 312 307 305 303 305 302 297 294 289 293 295 293 295 297 299 297 296
314 314 313 313 313 312 312 312 312 312 312 311 310 310 310 311 311 312 312 313 314 313 313 313 313 310 295 285 299 302 302 303 303 299 299 299 298 299 294 294 294 296 298 299 298 296 295
315 314 314 313 314 313 312 311 311 311 312 311 311 310 310 310 311 311 312 312 313 314 312 311 312 306 294 290 300 302 300 297 301 300 297 300 302 298 296 293 298 299 292 295 299 298 295
316 315 315 314 314 313 312 312 311 311 312 312 312 310 310 310 311 312 312 312 312 313 312 311 311 301 290 300 301 300 299 299 300 301 300 302 301 299 295 297 296 295 293 287 293 298 297
317 316 316 316 315 314 313 312 312 311 311 312 312 310 310 310 311 312 312 312 313 313 311 311 300 295 289 304 299 303 302 299 300 301 301 305 300 295 296 290 288 290 284 287 291 298 296
317 316 316 316 316 315 314 313 312 311 311 311 311 309 309 310 311 312 311 311 312 310 310 308 304 295 295 297 302 307 304 302 298 299 297 299 297 291 290 291 283 285 286 288 289 291 294
317 317 317 316 317 315 313 314 313 312 311 310 310 309 310 311 311 311 308 298 295 293 297 294 295 296 298 303 306 304 303 299 300 297 290 296 289 286 289 293 295 294 290 287 291 294 291
317 317 316 317 316 314 314 313 312 312 311 311 310 310 311 311 311 310 305 296 301 303 292 299 298 298 301 302 298 303 303 295 294 288 294 291 288 292 296 296 295 294 290 290 290 294 290
317 318 317 316 315 314 313 312 312 312 311 310 310 310 310 310 310 304 299 302 306 306 290 295 298 298 300 303 299 299 300 296 292 289 290 288 292 297 295 294 293 294 290 290 288 291 291
318 318 318 316 315 314 313 312 311 312 311 309 309 310 310 309 303 300 300 306 306 305 284 290 295 301 302 305 299 305 306 300 293 289 291 291 296 295 294 293 295 289 295 295 294 287 283
317 317 317 316 315 314 312 311 311 311 310 309 309 310 310 308 297 298 303 303 303 297 273 293 296 305 303 300 301 299 305 302 292 292 292 289 293 290 293 294 297 292 297 294 294 287 284
316 315 314 315 315 313 312 310 311 310 309 308 308 309 309 304 299 302 303 303 299 283 275 290 297 296 295 299 297 299 299 302 301 294 293 293 299 297 295 297 298 298 293 290 288 285 280
315 314 314 315 314 312 312 311 310 310 308 308 308 309 305 303 299 303 304 298 283 277 292 289 292 295 295 294 295 295 293 290 289 285 283 290 292 296 297 292 295 292 286 279 278 279 279
313 313 314 315 314 312 312 310 309 309 308 307 306 306 305 305 302 303 299 290 280 287 289 296 295 296 292 295 293 294 292 288 292 291 286 283 281 291 294 292 289 289 287 280 277 277 279
313 313 315 315 314 314 311 310 309 308 307 305 305 299 301 302 305 301 294 283 283 289 293 293 295 293 293 295 294 293 290 292 294 294 287 284 286 293 295 296 294 289 286 290 284 284 281
313 314 314 312 312 313 310 310 309 307 306 305 294 295 300 302 304 298 290 287 288 297 297 296 290 293 290 293 292 293 288 294 294 296 296 291 285 292 294 295 294 291 294 286 285 279 278
312 313 311 312 311 311 310 309 308 307 305 304 293 294 301 299 300 293 283 285 290 298 299 293 291 291 293 292 294 293 292 296 299 299 296 292 289 287 291 289 287 288 286 289 288 286 281
311 311 311 311 311 310 310 309 308 306 304 300 291 288 299 298 288 285 283 287 294 296 298 297 296 295 293 293 292 292 294 298 302 301 294 296 290 284 286 290 294 292 289 289 283 284 286
311 311 311 311 311 310 309 308 307 306 304 298 289 289 298 297 282 282 287 289 292 292 293 294 293 296 297 293 289 294 296 303 302 300 296 295 288 280 282 287 291 288 291 291 289 287 284
311 311 310 311 311 310 309 308 307 306 304 295 288 285 288 288 288 284 283 285 286 293 291 292 294 296 292 290 295 291 292 299 299 302 306 301 291 285 280 283 288 286 291 292 288 283 285
312 311 311 311 312 311 308 308 307 305 304 294 288 283 286 281 284 285 283 286 284 285 289 291 291 291 289 287 289 291 293 293 297 302 300 296 289 293 292 295 291 289 289 292 290 289 286
312 312 310 310 310 311 308 307 307 305 303 292 287 286 287 285 286 285 285 283 285 286 286 285 284 287 290 289 289 289 291 290 291 298 293 296 292 295 292 296 293 290 292 292 292 293 295
310 311 309 309 309 311 309 307 306 305 299 288 289 289 292 286 284 283 283 285 286 288 288 289 287 287 290 290 293 293 294 294 293 291 291 291 293 290 286 294 289 284 289 292 294 296 296
309 311 309 309 309 310 309 307 306 305 300 290 288 288 287 282 284 284 287 288 287 288 286 289 290 287 291 295 294 296 295 294 295 294 294 289 290 290 287 289 281 288 296 295 295 298 300
309 309 308 308 309 310 309 307 306 305 304 292 289 287 287 285 287 287 288 287 289 290 286 288 290 292 292 291 293 289 291 294 295 295 294 294 292 286 284 283 289 294 298 295 293 294 303
309 308 308 308 309 310 309 307 306 305 304 293 289 290 292 286 283 289 287 288 286 286 285 287 291 292 293 294 292 288 285 291 291 294 300 295 296 291 287 282 281 291 300 304 302 290 305
308 308 307 307 308 309 309 307 306 305 304 299 293 291 287 285 287 287 284 285 291 289 284 284 286 287 292 290 288 288 287 293 288 290 291 292 292 287 287 283 287 298 302 305 289 289 304
307 307 306 306 306 307 308 308 307 306 305 300 296 295 292 289 288 290 292 287 287 286 284 284 286 290 286 287 286 287 287 290 290 292 293 292 290 287 289 283 282 302 302 296 298 303 306
307 306 305 305 305 307 307 306 305 305 305 303 295 297 298 291 288 289 292 293 293 292 287 285 287 290 292 289 290 290 289 290 288 288 297 292 296 294 294 292 301 306 304 307 306 303 306

GFSGBSN_sfc_thetae_171.txt.gz
Theta_e
316 316 316 315 314 314 313 313 313 312 312 312 311 312 311 311 312 312 312 312 313 314 313 313 314 313 304 295 296 304 311 308 308 310 309 305 301 301 297 299 300 299 301 303 304 302 303
317 317 317 316 315 315 314 314 314 313 313 312 311 311 311 311 311 311 312 312 312 313 313 313 313 309 300 292 303 304 304 304 305 305 307 306 303 304 300 299 299 301 302 303 304 303 303
318 318 317 317 317 316 315 314 314 314 313 313 312 311 311 311 311 311 312 312 312 312 313 311 312 306 298 297 304 306 304 303 304 303 303 306 307 303 301 298 302 302 298 301 302 303 302
318 318 318 318 318 316 315 315 314 314 314 313 312 311 310 310 311 311 312 312 311 312 313 311 311 305 296 304 306 305 305 304 304 305 303 303 306 303 301 302 300 297 298 293 299 302 303
318 318 318 318 318 317 315 315 314 313 313 313 312 311 310 310 311 311 311 311 313 313 311 312 304 300 296 307 302 306 306 305 303 303 303 305 302 300 299 295 292 296 289 291 295 302 301
319 318 318 318 317 316 315 314 314 314 313 313 312 311 310 310 311 311 310 311 313 313 310 309 305 297 301 301 305 307 307 305 301 300 297 297 298 294 294 293 284 288 290 292 292 299 300
319 319 319 318 317 316 315 314 313 313 313 312 312 311 310 310 310 310 309 306 303 301 303 300 300 299 301 305 308 306 307 302 302 300 291 296 291 287 292 294 294 294 294 291 295 299 298
318 318 318 318 317 315 315 314 313 312 313 312 311 310 311 310 310 310 309 304 304 305 297 303 302 301 303 304 302 304 307 299 297 292 295 292 287 291 296 295 294 295 294 293 296 297 298
317 317 317 316 316 315 314 313 312 312 312 312 310 310 310 310 310 308 306 306 308 308 298 299 301 300 303 304 302 302 304 300 295 292 292 289 291 295 295 293 291 292 292 295 294 296 298
316 315 315 314 314 314 314 313 313 313 312 311 310 309 310 309 307 307 305 310 309 309 293 294 297 303 303 304 301 307 307 301 297 292 293 292 294 291 294 292 293 290 298 298 296 293 289
315 314 314 314 314 313 313 313 312 312 311 310 309 309 310 307 305 305 307 308 309 306 282 296 298 308 306 301 302 302 308 303 295 294 294 290 293 292 292 294 296 293 299 298 297 295 292
314 314 314 315 315 314 313 311 311 311 310 309 309 309 309 307 306 308 309 310 308 290 281 293 299 298 299 300 300 302 301 305 303 297 297 294 300 297 296 299 299 299 297 296 295 293 286
314 314 314 314 312 312 312 310 310 310 309 308 308 308 307 307 306 308 310 306 291 285 295 291 293 297 297 296 298 297 296 294 292 288 289 293 294 299 299 295 299 299 295 287 285 286 285
313 314 314 312 312 312 311 309 310 309 308 307 306 306 307 309 309 310 308 297 285 290 291 297 296 296 295 296 295 297 295 292 295 293 291 288 286 295 299 297 294 295 295 289 281 283 286
313 313 312 312 312 311 310 309 309 308 307 305 304 305 308 305 308 309 302 289 288 291 295 294 295 292 293 296 295 295 294 293 296 297 290 289 289 297 298 300 300 295 292 296 290 291 288
312 312 312 311 311 311 310 309 309 308 306 305 301 302 304 305 310 306 298 289 292 296 297 297 289 292 288 292 292 292 293 296 295 298 300 295 289 295 297 299 299 298 300 291 294 284 283
311 311 311 311 311 310 309 309 309 307 305 304 301 302 305 304 307 300 290 289 292 297 300 296 293 291 292 290 293 292 294 298 300 299 300 297 295 292 296 294 294 295 294 294 295 293 288
311 311 311 311 311 310 309 308 308 306 304 303 299 295 305 305 294 293 290 291 294 295 297 298 298 295 293 293 291 291 289 294 298 301 296 299 296 290 292 297 300 299 296 297 292 289 293
311 311 311 311 311 311 309 307 308 306 304 300 295 295 304 305 288 288 291 291 293 292 292 293 292 296 297 292 288 292 293 298 299 299 298 301 295 288 288 293 296 295 296 297 297 296 291
312 311 311 310 311 311 309 307 307 306 304 300 296 290 296 296 294 290 288 288 288 294 292 292 293 294 290 290 294 291 292 296 297 297 304 303 297 292 287 290 294 292 295 297 296 293 292
311 311 311 310 310 311 309 307 307 305 304 300 295 290 291 287 290 290 289 288 287 287 291 292 292 290 288 287 289 291 291 293 294 300 299 299 294 296 296 297 295 295 295 296 294 294 292
309 310 311 309 309 311 309 308 306 305 302 298 293 292 294 291 291 289 288 288 287 288 288 288 288 289 290 288 290 288 291 290 288 296 294 297 292 295 293 297 297 293 295 296 296 297 297
309 308 310 308 308 309 309 308 306 305 301 295 296 296 294 290 289 288 288 288 288 290 291 292 290 289 288 291 294 293 293 293 293 292 290 293 295 294 289 295 294 290 294 295 297 299 299
309 309 309 308 308 309 309 307 306 305 301 297 296 295 291 287 288 288 289 290 289 290 287 291 292 290 294 297 296 298 296 294 294 294 296 293 294 294 292 293 285 295 303 299 298 300 303
309 309 309 307 308 309 309 307 306 305 302 299 297 295 293 286 289 289 290 289 291 292 290 290 293 296 297 294 293 294 295 294 294 295 295 295 294 293 290 290 293 297 301 301 297 296 305
308 308 309 308 307 308 310 307 306 304 303 300 297 297 295 286 288 291 289 290 288 288 290 291 295 297 297 294 293 286 286 290 291 294 299 296 296 293 292 288 286 296 303 308 306 294 307
309 308 307 307 306 307 307 308 307 306 304 301 298 297 294 286 291 292 289 288 292 290 287 290 291 292 298 291 287 286 287 290 285 290 292 292 292 289 290 290 293 302 305 308 293 295 308
308 308 307 307 305 305 306 307 306 306 305 302 299 299 295 290 291 293 293 291 291 291 287 292 292 293 293 287 287 288 287 288 287 290 292 292 291 292 293 291 289 305 305 299 305 307 310
307 307 307 306 304 305 306 307 306 304 304 304 297 299 299 292 291 296 295 296 295 295 292 292 291 292 294 289 291 291 288 291 290 287 297 290 293 291 296 295 304 306 305 309 310 307 309

GFSGBSN_sfc_thetae_174.txt.gz
Theta_e
320 319 319 319 318 317 317 316 316 315 314 314 313 313 312 312 312 312 312 313 313 314 313 314 314 313 309 302 302 309 316 311 310 311 310 309 305 302 299 301 302 301 304 306 308 307 306
320 319 319 319 319 318 317 317 316 316 315 314 313 312 312 312 312 312 312 313 313 313 313 313 312 310 305 298 309 309 309 308 309 308 307 310 306 306 301 301 301 302 302 304 307 307 307
320 320 319 319 318 318 317 317 317 316 315 315 314 312 311 311 311 312 312 313 313 313 313 313 312 310 304 302 310 310 309 309 310 309 305 309 310 305 303 300 305 303 299 302 303 306 305
320 320 320 319 318 318 317 316 316 315 315 314 314 313 311 311 311 312 313 313 312 313 313 313 312 309 303 309 312 310 312 310 311 311 309 307 309 308 304 305 300 299 299 294 301 303 305
321 320 319 319 318 317 316 316 315 314 314 314 314 313 311 311 311 312 311 311 312 314 313 312 310 306 301 310 307 312 312 308 308 307 307 307 305 303 303 297 295 296 291 293 296 304 303
320 319 319 317 317 316 315 315 314 313 314 313 313 312 312 311 311 311 311 311 313 314 313 312 309 302 307 304 309 311 313 311 306 304 300 301 300 297 297 294 287 290 292 294 294 301 302
318 317 317 317 315 315 314 314 314 314 313 314 313 312 311 311 311 310 311 314 310 307 309 305 305 304 306 310 313 309 312 308 306 303 297 297 292 289 293 296 296 296 294 294 297 301 301
317 316 316 317 317 315 314 314 315 314 313 313 312 311 311 310 310 310 314 311 310 310 302 309 308 307 309 309 303 308 311 302 301 295 297 293 289 294 295 294 293 296 293 294 298 300 300
316 316 316 316 316 315 315 314 313 313 312 312 311 311 311 310 309 312 314 312 316 313 304 304 306 305 307 307 304 306 308 303 299 296 294 291 293 297 294 290 293 295 294 295 296 299 300
315 315 316 315 314 313 313 313 312 312 312 311 310 310 310 309 308 315 312 315 317 315 299 298 301 306 307 308 302 310 310 305 299 295 296 294 298 296 295 294 296 291 297 297 298 296 290
314 315 315 314 313 313 312 312 312 312 311 310 309 310 310 307 314 311 312 317 317 312 287 299 301 311 309 303 305 306 311 306 298 297 297 293 294 294 293 295 297 291 298 299 299 295 295
314 315 314 313 313 313 311 311 311 311 310 309 309 309 309 313 317 314 317 316 313 297 285 295 301 299 300 303 304 306 304 308 306 300 300 296 300 298 298 299 299 298 294 299 300 297 290
314 314 313 313 313 311 311 310 310 310 310 309 308 308 311 314 308 315 317 312 297 289 297 294 296 299 300 299 299 300 299 298 295 291 292 296 297 300 302 297 300 298 295 289 288 289 288
313 313 313 312 311 311 311 310 309 309 308 307 307 306 308 311 316 315 315 303 287 291 293 299 298 297 295 299 297 300 298 296 300 298 293 291 288 298 302 299 295 295 298 290 284 286 290
313 312 313 312 312 311 311 309 309 308 307 306 305 318 311 311 317 316 306 291 290 293 296 296 297 293 293 297 297 296 295 296 298 299 292 291 291 300 302 303 300 297 294 301 294 296 292
312 312 312 311 311 312 311 309 309 308 307 305 310 314 307 312 317 311 299 288 293 298 298 298 292 294 290 292 292 293 292 294 291 297 304 298 291 298 299 302 302 300 302 293 296 287 286
312 312 311 311 311 311 311 309 309 308 306 304 311 308 308 313 313 303 293 292 294 298 299 295 294 294 293 291 294 293 290 294 294 296 301 302 297 295 299 297 296 297 297 298 300 297 290
313 312 312 311 311 311 310 308 308 307 304 307 308 299 308 311 298 299 293 294 295 296 299 297 298 296 293 294 293 292 291 293 296 296 295 303 299 293 294 301 303 300 297 300 295 291 297
312 312 312 311 310 310 309 308 307 306 304 307 301 302 309 308 292 294 296 294 296 295 296 295 294 296 297 294 290 293 294 299 297 295 296 302 298 291 292 297 300 298 299 300 299 300 295
311 310 311 310 309 310 309 308 306 306 304 307 302 295 301 302 300 295 293 293 293 297 296 296 295 298 294 292 295 292 292 296 298 295 303 304 300 296 290 293 298 295 297 300 300 296 295
310 309 310 310 310 310 310 308 306 305 304 307 300 297 297 293 294 296 296 294 292 291 295 297 294 294 292 289 291 292 294 295 297 297 300 302 295 298 299 298 297 297 297 298 297 298 295
310 310 309 309 309 310 310 308 306 305 303 305 297 295 300 296 297 295 294 294 292 293 291 291 292 293 294 291 292 291 294 294 292 297 299 302 291 297 295 298 298 295 297 298 298 298 298
310 309 309 309 309 309 309 308 306 305 305 303 304 303 300 296 295 293 292 293 292 295 295 295 294 293 293 296 298 299 300 299 295 294 292 296 296 295 290 297 297 293 297 298 298 300 300
310 309 309 310 308 309 310 307 306 304 304 305 303 301 297 292 293 292 293 294 293 294 293 296 297 295 299 303 303 305 303 301 300 299 299 296 297 297 295 297 287 300 306 302 300 301 303
310 309 309 309 307 308 309 307 305 305 303 305 306 301 298 292 294 293 294 294 296 297 295 296 298 301 303 301 296 296 296 295 295 297 297 297 294 294 293 293 296 299 304 303 301 301 309
311 310 309 308 307 306 308 307 304 304 302 306 303 303 300 293 295 294 293 295 293 294 295 296 302 304 304 299 294 289 288 290 289 294 299 297 297 292 295 289 287 298 307 311 309 298 311
310 310 309 308 307 305 306 308 307 306 304 304 304 305 299 292 297 296 294 293 297 296 294 298 297 299 303 294 290 289 288 292 287 287 291 292 293 291 291 292 297 304 309 312 296 299 309
310 309 309 308 307 305 305 307 308 306 305 304 304 306 299 296 296 297 298 296 297 297 293 297 298 298 296 292 291 291 291 290 288 290 290 291 291 292 296 293 287 307 307 300 303 309 309
310 309 308 308 307 305 305 307 307 306 305 305 302 305 305 295 296 301 301 302 301 301 297 298 296 296 296 294 291 293 289 292 291 288 297 291 291 290 296 295 305 308 304 306 309 307 311